Jackson Hawkins Field, MS

8:07 PM CDT on March 30, 2017 (GMT -0500)
Hawkins

Weather History for KHKS - February, 2014

Change the Weather History Date:

Monday, February 17, 2014

  Actual Average Record
Temperature  
Mean Temperature 64 °F 51 °F  
Max Temperature 73 °F 62 °F 77 °F (2011)
Min Temperature 54 °F 41 °F 24 °F (2015)
Degree Days  
Heating Degree Days 2 14  
Month to date heating degree days 271  
Since 1 July heating degree days 1723  
Cooling Degree Days 0 0  
Month to date cooling degree days 0  
Year to date cooling degree days 4  
Growing Degree Days 14 (Base 50)    
Moisture  
Dew Point 55 °F    
Average Humidity 79    
Maximum Humidity 94    
Minimum Humidity 57    
Precipitation  
Precipitation 0.00 in 0.15 in 0.86 in (2008)
Month to date precipitation 2.74  
Year to date precipitation 7.75  
Sea Level Pressure  
Sea Level Pressure 30.07 in    
Wind  
Wind Speed 6 mph (SSW)    
Max Wind Speed 16 mph    
Max Gust Speed 23 mph    
Visibility 7 miles    
Events Fog    
T = Trace of Precipitation, MM = Missing Value Source: NWS Daily Summary

Daily Weather History Graph

Daily Weather History Graph

Search for Another Location

Airport or City:

Trip Planner

Search our weather history database for the weather conditions in past years. The results will help you decide how hot, cold, wet, or windy it might be!

Date:

Astronomy

Feb. 17, 2014 Rise Set
Actual Time 6:41 AM CST 5:48 PM CST
Civil Twilight 6:16 AM CST 6:13 PM CST
Nautical Twilight 5:47 AM CST 6:42 PM CST
Astronomical Twilight 5:19 AM CST 7:10 PM CST
Moon 8:30 PM CST (2/17) 7:53 AM CST (2/17)
Length of Visible Light 11h 57m
Length of Day
11h 07m
Waning Gibbous, 93% of the Moon is Illuminated
Feb 17
Waning Gibbous
Feb 22
Last Quarter
Mar 1
New
Mar 8
First Quarter
Mar 16
Full

Hourly Weather History & Observations

Time (CST) Temp. Dew Point Humidity Pressure Visibility Wind Dir Wind Speed Gust Speed Precip Events Conditions
12:53 AM 54.0 °F 46.0 °F 75% 30.06 in 10.0 mi SE 3.5 mph - N/A   Overcast
1:53 AM 57.0 °F 51.1 °F 81% 30.07 in 10.0 mi South 5.8 mph - N/A   Overcast
2:53 AM 57.0 °F 51.1 °F 81% 30.07 in 10.0 mi South 5.8 mph - N/A   Overcast
3:53 AM 57.0 °F 52.0 °F 83% 30.06 in 10.0 mi South 5.8 mph - N/A   Overcast
4:53 AM 55.9 °F 52.0 °F 87% 30.05 in 10.0 mi South 8.1 mph - N/A   Overcast
5:53 AM 55.0 °F 52.0 °F 89% 30.04 in 8.0 mi South 5.8 mph - N/A   Partly Cloudy
6:53 AM 57.0 °F 54.0 °F 89% 30.06 in 9.0 mi South 6.9 mph - N/A   Overcast
7:53 AM 57.9 °F 54.0 °F 87% 30.07 in 8.0 mi SSE 8.1 mph - N/A   Overcast
8:53 AM 61.0 °F 55.0 °F 81% 30.08 in 10.0 mi South 8.1 mph - N/A   Overcast
9:53 AM 64.0 °F 55.0 °F 73% 30.09 in 10.0 mi South 6.9 mph - N/A   Overcast
10:53 AM 64.9 °F 55.9 °F 73% 30.09 in 10.0 mi South 10.4 mph - N/A   Overcast
11:53 AM 71.1 °F 55.9 °F 59% 30.05 in 10.0 mi SSW 16.1 mph 23.0 mph N/A   Overcast
12:53 PM 71.1 °F 55.9 °F 59% 30.01 in 10.0 mi SSW 12.7 mph - N/A   Overcast
1:53 PM 71.1 °F 57.0 °F 61% 30.00 in 10.0 mi SW 9.2 mph - N/A   Overcast
2:53 PM 72.0 °F 57.0 °F 59% 30.01 in 10.0 mi SW 8.1 mph - N/A   Overcast
3:53 PM 73.0 °F 57.0 °F 57% 30.02 in 10.0 mi WSW 11.5 mph - N/A   Overcast
4:53 PM 72.0 °F 57.9 °F 61% 30.03 in 10.0 mi West 5.8 mph - N/A   Overcast
5:53 PM 70.0 °F 57.9 °F 65% 30.05 in 10.0 mi Calm Calm - N/A   Overcast
6:53 PM 66.9 °F 57.9 °F 73% 30.06 in 10.0 mi Calm Calm - N/A   Overcast
7:53 PM 64.9 °F 57.9 °F 78% 30.07 in 7.0 mi Calm Calm - N/A   Mostly Cloudy
8:53 PM 64.0 °F 57.9 °F 80% 30.09 in 9.0 mi Calm Calm - N/A   Clear
9:53 PM 59.0 °F 57.0 °F 93% 30.09 in 4.0 mi Calm Calm - N/A   Clear
10:38 PM 57.2 °F 55.4 °F 94% 30.11 in 1.8 mi Calm Calm - N/A   Clear
10:53 PM 57.9 °F 55.9 °F 93% 30.09 in 1.0 mi Calm Calm - N/A   Clear
10:58 PM 57.2 °F 55.4 °F 94% 30.11 in 0.2 mi Calm Calm - N/A Fog Fog
11:22 PM 57.2 °F 55.4 °F 94% 30.11 in 0.2 mi Calm Calm - N/A Fog Fog
11:42 PM 57.2 °F 53.6 °F 88% 30.11 in 1.2 mi NW 6.9 mph - N/A   Partly Cloudy
11:49 PM 57.2 °F 55.4 °F 94% 30.11 in 2.5 mi NNW 5.8 mph - N/A   Partly Cloudy
11:53 PM 57.9 °F 55.9 °F 93% 30.09 in 4.0 mi North 5.8 mph - N/A   Partly Cloudy